Annecy-Haute-Savoie-Mont Blanc Airport

Jump to: basic info | weather | frequencies | runways | comments

Related pages: nearby airports | nearby navaids | notams | map

Basic information (top)

Codes: NCY LFLP
Location: lon 45.929199, lat 6.098760, elev 1,521 ft / 464 m msl
Status: medium_airport
Scheduled airline service: yes
Links: Wikipedia Mobile

Weather (top)

Current conditions (rec'd 2015/03/31 01:30Z):

LFLP 310130Z AUTO 17003KT 110V210 9999 OVC024 10/07 Q1020

Airport forecast (rec'd 2015/03/30 00:00Z):

TAF LFLP 302300Z 3100/3124 18003KT 5000 -RA FEW020 BKN020 OVC040 
      BECMG 3102/3104 6000 NSW 
      BECMG 3105/3107 9999 SCT033 BKN050 
      TEMPO 3111/3120 6000 SHRA FEW023 BKN033 
      BECMG 3120/3122 34004KT BKN030

Frequencies (top)

Verify before use: may be inaccurate or out of date.

AFIS: 118.2 MHz (INFO)
APP: 123.7 MHz (CHAMBERY APP)
TWR: 118.2 MHz (ANNECY TWR)

Runways (top)

04/22: 5,348 x 98 ft (1,630 x 30 m) — paved — lighted — threshold 04 displaced 820 ft (250 m) — threshold 22 displaced 755 ft (230 m)

Latest comments (top)

No comments yet for Annecy-Haute-Savoie-Mont Blanc Airport

More... (top)

See also NOTAMs and nearby airports and navaids, or visit the Annecy-Haute-Savoie-Mont Blanc Airport page at the main OurAirports website..